Location: Unspecified
(22.6800°N, 112.2000°E)
Time: 20:53:31
(UTC+08:00)

Transit 2A Rocket - All Passes

Search period start: 04 August 2021 00:00
Search period end: 14 August 2021 00:00
Orbit: 589 x 913 km, 66.7° (Epoch: 03 August)

Date Brightness Start Highest point End Pass type
(mag) Time Alt. Az. Time Alt. Az. Time Alt. Az.
04 Aug - 00:15:36 10° NW 00:21:12 47° WSW 00:27:00 10° S visible
04 Aug - 12:58:54 10° SSW 13:03:10 84° ESE 13:07:38 10° NNE daylight
04 Aug - 23:32:45 10° NNW 23:38:39 87° WSW 23:44:44 10° SSE visible
05 Aug - 12:16:46 10° S 12:20:40 35° ESE 12:24:43 10° NE daylight
05 Aug - 14:01:24 10° W 14:03:17 12° WNW 14:05:13 10° NNW daylight
05 Aug - 22:50:19 10° N 22:56:00 51° ENE 23:01:54 10° SE visible
06 Aug - 00:34:39 10° WNW 00:38:14 16° WSW 00:41:53 10° SW visible
06 Aug - 11:35:38 10° SE 11:38:15 16° ESE 11:40:55 10° ENE daylight
06 Aug - 13:16:50 10° WSW 13:20:26 26° WNW 13:24:13 10° N daylight
06 Aug - 22:08:19 10° N 22:13:18 28° ENE 22:18:25 10° ESE visible
06 Aug - 23:50:38 10° NW 23:55:47 31° WSW 00:01:03 10° SSW visible
07 Aug - 12:33:32 10° SW 12:37:44 57° WNW 12:42:10 10° NNE daylight
07 Aug - 21:27:04 10° NNE 21:30:28 16° ENE 21:33:57 10° E visible
07 Aug - 23:07:28 10° NNW 23:13:15 59° WSW 23:19:14 10° S visible
08 Aug - 11:50:57 10° S 11:55:09 61° ESE 11:59:36 10° NNE daylight
08 Aug - 22:24:46 10° NNW 22:30:40 77° ENE 22:36:46 10° SSE visible
09 Aug - 00:12:20 10° W 00:12:45 10° WSW 00:13:09 10° WSW visible
09 Aug - 11:09:06 10° SSE 11:12:41 26° ESE 11:16:25 10° NE daylight
09 Aug - 12:52:23 10° W 12:55:09 16° WNW 12:58:02 10° NNW daylight
09 Aug - 21:42:28 10° N 21:48:01 41° ENE 21:53:42 10° SE visible
09 Aug - 23:26:00 10° WNW 23:30:20 21° WSW 23:34:42 10° SSW visible
10 Aug - 10:28:43 10° SE 10:30:19 12° ESE 10:31:55 10° E daylight
10 Aug - 12:08:26 10° SW 12:12:21 34° WNW 12:16:30 10° N daylight
10 Aug - 21:00:40 10° N 21:05:15 23° ENE 21:09:57 10° ESE visible
10 Aug - 22:42:22 10° NW 22:47:50 39° WSW 22:53:27 10° S visible
11 Aug - 11:25:25 10° SSW 11:29:42 77° WNW 11:34:14 10° NNE daylight
11 Aug - 20:19:58 10° NE 20:22:22 12° ENE 20:24:47 10° E visible
11 Aug - 21:59:23 10° NNW 22:05:18 73° WSW 22:11:23 10° SSE visible
12 Aug - 10:43:04 10° S 10:47:10 45° ESE 10:51:28 10° NE daylight
12 Aug - 12:29:23 10° WNW 12:29:56 10° WNW 12:30:29 10° NW daylight
12 Aug - 21:16:49 10° NNW 21:22:41 62° ENE 21:28:42 10° SSE visible
12 Aug - 23:02:03 10° WNW 23:04:49 13° WSW 23:07:39 10° SW visible
13 Aug - 10:01:34 10° SSE 10:04:44 20° ESE 10:08:00 10° ENE daylight
13 Aug - 11:43:42 10° WSW 11:47:02 21° WNW 11:50:32 10° N daylight
13 Aug - 20:34:41 10° N 20:40:00 34° ENE 20:45:25 10° SE visible
13 Aug - 22:17:32 10° NW 22:22:23 26° WSW 22:27:20 10° SSW visible
